Погода в Клине

Погода в Клине : погода сейчас, прогноз погоды и архив. Всё, что Вы хотите узнать о погоде в Клине!

Хотите узнать прогноз погоды в Клине? Тогда Вам сюда: Погода в Клине

Поиск расширенной информации на нашем сайте:

Другие новости

Новости СМИ2

Главная страница сайта

Новости сайта

03.07.2017

Напоминаем, что на нашем специализированном сайте Метеоцентр.Азия вы можете получить высокодетализированные автоматические прогнозы погоды по пунктам России, СНГ и мира в авиационном формате (включающие направление и скорость ветра, видимость, явления погоды, количество и форму облачности, нижнюю и верхнюю границу облачности).


Погода в Клине - сегодня

Время (UTC), дата Ветер
(°,м/с) 
Видим.   Явления Облачность Т
(°С)
Тd
(°С)
f(%) Тe
(°С)
Pmin
(гПа)
dP
(гПа)
Po
(мм)
O2
(г/м3)
Тmin Tmax R s Состояние
почвы
03 07.02.18 170 (Ю) 10 км    ясно 
-13.4 -15.5 84 -17  1027.4  754  321  -14.2    0.0     
06 07.02.18 170 (Ю) 10 км    8/3 600 м средняя 
[Sc|Ac trans]
-12.5 -14.6 84 -17  1027.9  0.5  754  320  -14.2    0.0  47  равномерный
сухой снег
100% 
09 07.02.18 180 (Ю) 4000 м  слаб. снег [диам. изморози 0 мм]  10/10 600 м 
[Ns]
-10.4 -12.8 83 -13  1029  1.3  755  318           
12 07.02.18 180 (Ю) 10 км  {снег}  9/3 600 м средняя 
[Sc|As trans]
-8 -10.8 80 -11  1029.6  0.8  756  315           
15 07.02.18 170 (Ю) 10 км    8/8 600 м 
[Sc]
-7.6 -9.7 85 -11  1031.1  1.4  757  315      0.2     
18 07.02.18 180 (Ю) 10 км    8/8 600 м 
[Sc]
-7.4 -9.5 85 -10  1032.5  1.4  758  315    -7.2  0.2     
21 07.02.18 190 (Ю) 10 км    9/9 600 м 
[Sc]
-8 -9.9 86 -10  1033.1  0.6  758  316           
00 08.02.18 160 (Ю) 10 км    ясно 
-11.7 -13 90 -14  1034  0.5  759  321           
03 08.02.18 160 (Ю) 10 км    ясно 
-13 -14.5 88 -13  1033.3  -0.8  758  322  -13.2         
06 08.02.18 160 (Ю) 10 км    9/9 600 м 
[Sc]
-11 -14.2 77 -13  1032.5  -0.7  758  319  -13.2      46  равномерный
сухой снег
100% 
09 08.02.18 160 (Ю) 4000 м  слаб. снег  10/10 2000 м 
[Ns]
-7.2 -10.4 78 -9  1031.6  -0.5  757  314           
12 08.02.18 180 (Ю) 10 км  {снег}  10/10 2000 м 
[Ac As]
-5.7 -11.1 66 -8  1030.9  -0.6  757  313           
15 08.02.18 160 (Ю) 10 км    10/10 2000 м 
[Ac As]
-7 -10.2 78 -8  1031.1  0.1  757  314      0.0     
18 08.02.18 120 (ЮВ) 10 км    10/10 2000 м 
[Ac As]
-7.3 -9.7 83 -7  1030.2  -0.9  756  314    -5.5  0.0     
21 08.02.18 140 (ЮВ) 10 км    10/10 600 м 
[Sc]
-6.4 -8.2 87 -6  1028.6  -1.5  755  312           
00 09.02.18 100 (В) 10 км    10/10 600 м 
[Sc]
-5.8 -7.6 87 -5  1027.8  -0.8  755  311           
03 09.02.18 130 (ЮВ) 10 км    10/10 600 м 
[Sc]
-5.1 -6.6 89 -6  1026.3  -1.4  754  310  -7.4         
06 09.02.18 130 (ЮВ) 10 км    10/10 600 м 
[Sc]
-5.8 -7.3 89 -7  1026.3  754  311  -7.4      39  равномерный
сухой снег
100% 
09 09.02.18 130 (ЮВ) 10 км    10/10 600 м 
[Sc]
-5.4 -8.5 79 -7  1026.1  0.1  754  311           
12 09.02.18 080 (В) 10 км    10/10 600 м 
[Sc]
-5.1 -8.2 79 -6  1025.1  -1  753  310           
15 09.02.18 100 (В) 10 км    10/10 600 м 
[Sc]
-6.5 -8.7 84 -6  1025.5  0.2  753  312           
18 09.02.18 070 (В) 10 км    8/8 2000 м средняя 
[Ac trans]
-7 -8.7 88 -7  1024.8  -0.6  752  312    -5       
09 22.02.18 320 (СЗ) 10 км  [диам. изморози 0 мм]  4/0 верхняя 
[Ci fib]
-9.3 -14.2 67 -9  1028.3  0.3  755  316           
12 26.03.18 250 (З) 10 км  в посл. час ливневой дождь  9/8 600 м средняя 
[Sc diur, vesp|Ac cuf]
+5 -2.1 60 +4  1005.1  -0.8  739  292           
03 07.04.18 250 (З) 10 км    10/4 600 м средняя 
[Sc|Ac und]
+3 -2.3 68 +1  1010.9  -0.1  743  296  +2.4       
Время (UTC), дата Ветер
(°,м/с) 
Видим.   Явления Облачность Т
(°С)
Тd
(°С)
f(%) Тe
(°С)
Pmin
(гПа)
dP
(гПа)
Po
(мм)
O2
(г/м3)
Тmin Tmax R s Состояние
почвы

Для получения пояснительной информации подведите курсор к названию столбца.

ПОГОДА в Клине - архив

Всё, что Вы хотите узнать о погоде в Клине - удобно и подробно!

Выберите нужную дату (начиная с 1 января 2015* года) и нажмите кнопку "Найти".
Будут отображены архивные сводки погоды по пункту Клин, начиная с указанной даты.


Отображать данные в формате CSV (для использования в таблицах Excel)


Внимание! Наш архив погоды предназначен исключительно для личного некоммерческого использования в познавательных целях. Если Вам необходимы официальные справки о состоянии погоды (для производственных, юридических, коммерческих и т.п. целей), обращайтесь в органы Росгидромета.

*Примечание: данная дата относится к архиву по метеостанциям СССР (Россия, СНГ, Балтия).
Архив по метеостанциям Зарубежной Европы и Азии (кроме Китая) хранится 10 дней, по другим регионам земного шара (Китай, Африка, Америка, Австралия, Океания) - 1 день.

Клин - район местоположения метеостанции


Название, широта, долгота, высота метеостанции:
Клин 56.3°ш. 36.8°д. 167 м над ур. моря [Российская Федерация]

Дополнительная информация

В oтличие oт бoльшинства пoгoдных сайтoв мы публикуем пoдрoбную метеoинфoрмацию в детальнoм прoфессиoнальнoм фoрмате.

Характеристики температуры и влажнoсти вoздуха измеряются на высoте 2 м в тени вдали oт зданий и деревьев.
Скoрoсть ветра измеряется на высoте 10 м (на урoвне рoста челoвека скoрoсть ветра ниже в 1.5-2 раза). Если метеoстанция нахoдится в гoрoде или в лесу, тo скoрoсть ветра занижена на 2-4 м/с пo сравнению с oткрытым местoм. Скoрoсть ветра над акватoриями крупных рек и oзёр, а также на вершинах хoлмoв на 2-5 м/с выше, чем в oбычных услoвиях.
Атмoсфернoе давление в разных тoчках местнoсти мoжет значительнo oтличаться oт давления на метеoстанции, в зависимoсти oт услoвий рельефа (при пoдъёме на 10 м давление пoнижается примернo на 1 мм рт.ст.).